Flag for U.S.A. Weather past 2 weeks in Nashville, Tennessee, U.S.A.

Now
42 °F

Passing clouds.


Feels Like: 37 °F
Forecast: 42 / 56 °F
Wind: 9 mph from South

Location: Nashville International Airport

Current Time: Dec 22, 2014 at 1:32:55 AM

Latest Report: Dec 22, 2014 at 12:53 AM


Visibility: 10 mi

Pressure: 30.00 "Hg

Humidity: 89%

Dew point: 39 °F

Location of NashvilleLocation

Historic Weather in Nashville — Graph

°F

Nashville temperature yesterday

Maximum temperature yesterday: 53 °F (at 1:53 PM)
Minimum temperature yesterday: 25 °F (at 4:53 AM)
Average temperature yesterday: 41 °F

Past Weeks' High & Low Weather Summary

 TemperatureHumidityPressure
High55 °F (Dec 15, 3:53 PM)100% (Dec 15, 12:53 AM)30.51 "Hg (Dec 15, 12:53 AM)
Low24 °F (Dec 12, 4:53 AM)38% (Dec 12, 2:53 PM)29.82 "Hg (Dec 16, 12:53 AM)
Average40 °F74%30.23 "Hg
* Reported Dec 6 11:53 PM — Dec 21 11:53 PM, Nashville, Weather by CustomWeather, © 2014

Note: Actual official high and low records may vary slightly from our data, if they occured in-between our weather recording intervals... More about our weather records

Advertising

Nashville weather history for previous 24 hours

 ConditionsComfort  
Time TempWeatherWind HumidityBarometerVisibility
11:53 PM
Dec 21
43 °FPassing clouds.8 mph86%30.01 "Hg10 mi
10:53 PM44 °FClear.7 mph79%30.03 "Hg10 mi
9:53 PM43 °FPassing clouds.No wind79%30.04 "Hg10 mi
8:53 PM45 °FPassing clouds.5 mph74%30.05 "Hg10 mi
7:53 PM49 °FPassing clouds.8 mph64%30.06 "Hg10 mi
6:53 PM49 °FPassing clouds.No wind66%30.08 "Hg10 mi
5:53 PM51 °FPassing clouds.No wind59%30.09 "Hg10 mi
4:53 PM51 °FPassing clouds.3 mph59%30.09 "Hg10 mi
3:53 PM52 °FPassing clouds.5 mph57%30.08 "Hg10 mi
2:53 PM53 °FScattered clouds.10 mph52%30.08 "Hg10 mi
1:53 PM53 °FScattered clouds.6 mph43%30.10 "Hg10 mi
12:53 PM52 °FPassing clouds.6 mph45%30.14 "Hg10 mi
11:53 AM50 °FPassing clouds.7 mph44%30.18 "Hg10 mi
10:53 AM46 °FScattered clouds.5 mph51%30.23 "Hg10 mi
9:53 AM42 °FPartly sunny.No wind71%30.25 "Hg10 mi
8:53 AM34 °FFog.No wind85%30.26 "Hg6 mi
7:53 AM27 °FIce fog.No wind96%30.26 "Hg5 mi
6:53 AM26 °FIce fog.No wind88%30.27 "Hg4 mi
5:53 AM25 °FIce fog.3 mph92%30.26 "Hg6 mi
4:53 AM25 °FIce fog.3 mph96%30.25 "Hg5 mi
3:53 AM27 °FIce fog.No wind92%30.25 "Hg4 mi
2:53 AM28 °FIce fog.No wind89%30.27 "Hg6 mi
1:53 AM29 °FIce fog.No wind89%30.27 "Hg6 mi
Weather by CustomWeather, © 2014

See weather overviewHow to use our weather pages